Simultaneous Nadir Overpasses (SNOs) Predictions

Prediction of SNOs between GOES-17 and METOP-B Satellite Orbit:

Table of predicted SNOs for the next 14.0 days since TLE Epoch: 1/14/2023
Index Date Time (GOES-17) GOES-17 Lat,Lon METOP-B Lat,Lon Distance(km) Time Diff (sec)
1 01/14/2023 06:54:36 0.00,-137.29 -0.72,-140.63 379.63 80
2 01/15/2023 06:31:15 0.00,-137.28 0.35,-135.62 188.48 80
3 01/16/2023 18:50:07 -0.00,-137.27 0.66,-140.18 332.06 80
4 01/17/2023 18:32:07 -0.00,-137.25 -0.47,-135.19 235.44 80
5 01/19/2023 06:48:26 0.00,-137.21 -0.59,-139.77 292.56 80
6 01/20/2023 06:30:27 0.00,-137.19 0.54,-134.78 274.29 80
7 01/21/2023 18:46:37 -0.00,-137.16 0.50,-139.33 247.95 80
8 01/22/2023 18:28:38 0.00,-137.13 -0.64,-134.34 318.80 80
9 01/24/2023 06:44:57 -0.01,-137.09 -0.41,-138.93 209.83 80
10 01/25/2023 06:26:57 -0.01,-137.06 0.67,-133.92 356.88 80
11 01/26/2023 18:43:07 0.02,-137.03 0.36,-138.48 165.62 80
12 01/27/2023 18:25:07 0.02,-137.00 -0.78,-133.49 400.92 80
